Location: Ocean City
(38.3360°N, 75.0850°W)
Time: 03:03:57
(UTC-05:00)

deb Explorer IX - Pass Details

Date: 25 November 2019
Orbit: 546 x 1104 km, 38.8° (Epoch: 11 December)

Event Time Altitude Azimuth Distance (km) Brightness Sun altitude
Exits shadow 03:48:31 15° 145° (SE) 1,915 ? -35.6°
Drops below altitude 10° 03:49:26 10° 141° (SE) 2,219 ? -35.5°
Sets 03:51:47 0° 133° (SE) 3,053 ? -35.0°
